User: anonymous   Login
Location: Cussy
(47.0410°N, 4.6412°E)
Time: 21:57:37
(UTC+00:00)
Language:

Cosmos 1328 Rocket - Orbit

View from above orbital plane
View from above orbital plane
View from above satellite
View from above satellite

Ground track
Ground track

The orbit data is extracted from the following two-line orbital elements,

1 12988U 81117B   21058.54809512  .00000094  00000-0  82153-5 0  9993
2 12988  82.5218 245.6323 0019446  64.8396 349.0075 14.84798935 99296
Epoch (UTC): 27 February 2021 13:09:15
Eccentricity: 0.0019446
inclination: 82.5218°
perigee height: 600 km
apogee height: 628 km
right ascension of ascending node: 245.6323°
argument of perigee: 64.8396°
revolutions per day: 14.84798935
mean anomaly at epoch: 349.0075°
orbit number at epoch: 9929

The dashed part of the orbit path shows where the satellite is in the earth's shadow,  

DLR